Temp
50 43 38 44 51 52 49 44 40 44 48 47 46 47 49 49 48 47 48 47 47 47 49 50 50 50 50 50 52 56 56 57 58 53 54 53 52 52 51 52 52 50 48 49
44 39 49 53 53 49 47 43 40 45 47 44 43 42 48 49 48 50 51 49 47 47 48 49 48 48 49 49 50 52 54 54 54 56 55 54 53 52 51 50 49 48 47 48
41 47 53 51 48 47 44 42 43 43 44 44 39 36 42 49 50 50 52 53 51 48 47 48 48 47 47 46 47 49 50 52 54 56 55 54 53 52 50 47 45 46 47 47
45 52 49 47 45 47 40 50 48 45 41 30 40 29 35 44 46 49 51 50 50 48 48 49 48 45 45 44 46 47 48 49 53 56 54 53 51 49 45 44 44 44 45 45
42 44 45 43 45 49 44 50 47 45 39 40 34 28 35 41 42 44 49 51 49 49 48 47 47 47 45 44 43 45 46 47 49 53 54 52 50 49 46 44 43 43 43 43
45 49 47 47 51 50 51 47 45 42 38 23 34 31 29 36 44 45 47 49 47 47 47 47 47 45 43 43 43 43 44 44 46 47 50 51 48 45 43 43 42 40 41 41
42 42 46 48 44 47 47 39 24 23 28 25 37 32 34 44 48 48 47 47 45 47 46 44 43 42 41 41 42 43 43 42 44 44 44 44 45 44 43 43 42 40 39 39
33 29 43 48 45 41 41 39 28 22 24 27 36 29 37 46 44 44 45 46 46 45 46 43 42 41 41 41 41 42 41 41 41 42 41 42 43 42 42 42 41 39 38 39
33 34 44 46 49 48 39 36 42 33 27 26 31 36 44 40 42 41 42 43 43 43 43 41 40 41 40 40 40 40 39 40 40 40 40 40 40 40 40 40 40 40 40 40
40 32 41 43 46 46 43 46 33 31 18 20 28 29 36 39 42 40 39 39 38 39 38 38 39 38 38 39 38 38 39 38 38 38 38 38 38 38 39 39 38 38 38 38
44 38 34 41 38 38 38 37 39 38 32 27 25 30 41 42 44 42 39 41 38 38 38 38 36 36 37 36 36 36 36 36 36 36 36 36 37 38 38 38 37 37 38 38
44 38 28 34 42 46 44 41 41 31 29 30 31 34 47 45 44 44 41 41 39 40 37 36 36 35 34 34 34 34 34 34 35 36 36 36 36 37 36 37 37 37 37 37
43 29 18 27 34 38 37 41 42 41 39 33 29 33 42 41 39 40 40 39 39 37 34 34 33 34 33 33 33 33 34 33 34 34 33 33 34 34 35 35 36 36 36 36
46 36 31 28 31 37 33 38 41 41 32 35 35 39 43 41 41 40 40 40 38 38 37 35 34 34 33 34 34 33 32 33 34 33 33 32 32 34 34 34 34 34 34 34
40 28 30 35 35 35 34 34 37 37 39 34 39 39 46 49 50 41 44 40 37 37 37 35 35 34 33 33 33 34 33 33 34 33 33 32 33 33 33 31 31 32 32 32
38 29 30 29 35 32 31 36 37 37 38 40 41 40 52 50 46 46 47 40 39 39 38 38 36 34 33 34 33 33 33 33 33 33 32 32 32 31 31 30 30 30 30 30
31 30 29 26 33 29 26 32 36 38 40 40 34 43 50 47 45 49 52 41 41 41 40 38 37 36 35 35 35 33 33 33 32 31 31 31 31 30 29 29 29 29 28 29
25 27 26 20 23 19 34 40 41 39 41 44 44 46 48 48 44 46 45 43 44 44 42 40 40 39 37 36 35 35 34 32 31 30 30 31 30 30 29 29 29 27 28 28
35 30 20 19 7 27 32 34 34 33 36 43 42 46 48 51 50 47 52 52 51 49 47 45 44 41 38 36 35 34 31 31 31 30 30 30 30 29 29 28 27 27 27 27
31 32 24 18 17 15 33 39 42 37 29 43 44 45 46 47 38 44 54 51 54 54 48 46 43 40 37 35 35 33 31 30 30 31 31 31 30 29 28 29 28 28 28 28
15 23 21 21 18 18 34 39 36 26 30 40 40 41 39 38 40 44 46 46 47 48 46 45 40 37 36 35 34 32 31 30 33 33 31 30 30 30 30 29 28 27 27 27
16 13 15 12 17 15 33 33 30 33 34 34 36 38 39 39 38 40 42 39 42 44 38 38 37 36 36 35 33 32 30 33 33 31 29 29 28 29 29 26 26 26 26 24
15 24 16 22 22 28 32 35 33 34 35 38 38 38 39 36 34 36 36 37 39 38 36 36 37 35 34 34 34 32 32 33 31 28 27 26 26 27 27 25 25 25 24 23
20 19 20 23 32 34 37 38 35 36 38 41 40 39 39 38 35 33 33 34 34 35 34 34 33 33 32 33 34 34 33 31 27 26 25 24 24 24 24 26 26 25 23 22
24 23 19 25 33 35 36 38 39 39 40 39 40 37 36 36 35 34 34 34 33 33 33 32 33 33 32 32 32 32 30 28 26 25 24 24 24 23 23 24 24 24 25 25
27 27 24 24 34 32 36 38 35 32 33 34 33 35 33 35 36 38 37 33 33 32 31 30 30 31 30 30 30 27 27 27 26 23 23 23 22 22 23 22 21 28 27 29
MSLP
1016.72 1017.11 1017.69 1017.66 1017.58 1017.19 1017.66 1018.34 1018.47 1018.62 1018.66 1018.97 1018.89 1018.99 1018.94 1019.30 1019.80 1020.07 1020.41 1020.84 1021.49 1021.71 1022.05 1022.53 1022.97 1023.08 1023.10 1023.12 1023.10 1022.86 1022.89 1022.87 1022.91 1023.08 1023.56 1024.01 1024.45 1024.96 1025.23 1025.36 1025.33 1025.22 1025.07 1024.90
1017.70 1017.49 1017.19 1017.16 1017.41 1017.24 1017.53 1017.91 1018.41 1018.61 1018.89 1019.18 1019.31 1018.98 1018.52 1018.68 1018.63 1018.68 1019.11 1019.96 1020.30 1021.06 1021.67 1022.40 1022.58 1022.95 1023.13 1023.26 1023.22 1023.14 1023.03 1022.92 1023.00 1022.96 1023.15 1023.55 1024.10 1024.98 1025.36 1025.59 1025.65 1025.47 1025.38 1025.22
1017.83 1017.17 1016.84 1017.00 1017.33 1017.42 1017.54 1017.76 1018.05 1018.59 1019.09 1019.41 1019.71 1019.01 1018.02 1017.50 1017.66 1017.97 1018.22 1018.42 1018.94 1019.59 1020.90 1021.88 1022.25 1022.85 1023.01 1023.31 1023.51 1023.42 1023.23 1023.10 1022.91 1022.99 1023.20 1023.50 1023.89 1024.85 1025.54 1025.88 1026.06 1025.93 1025.72 1025.62
1017.87 1017.09 1016.72 1017.24 1017.34 1017.63 1017.74 1017.57 1018.05 1018.73 1019.42 1020.13 1020.22 1019.80 1018.09 1017.07 1017.01 1017.07 1017.25 1017.66 1018.33 1019.25 1020.15 1021.02 1021.94 1022.64 1022.93 1023.47 1023.63 1023.60 1023.53 1023.28 1023.21 1023.06 1023.33 1023.37 1023.64 1024.49 1025.40 1025.99 1026.36 1026.33 1026.15 1026.04
1017.85 1017.15 1017.03 1017.23 1017.50 1017.71 1017.81 1017.75 1018.44 1019.06 1019.71 1020.43 1020.76 1021.05 1018.25 1017.10 1016.73 1016.31 1016.44 1016.93 1017.61 1018.48 1019.32 1020.45 1021.52 1022.21 1022.85 1023.43 1023.78 1023.78 1023.72 1023.67 1023.51 1023.38 1023.48 1023.80 1023.87 1024.31 1025.13 1025.85 1026.28 1026.49 1026.46 1026.50
1018.12 1017.73 1017.34 1017.23 1017.36 1017.63 1017.95 1018.35 1019.03 1019.69 1020.56 1020.92 1020.10 1020.45 1018.30 1017.05 1015.88 1015.57 1015.86 1016.57 1017.23 1018.29 1019.24 1020.15 1021.14 1022.17 1022.95 1023.44 1023.80 1023.91 1023.93 1023.87 1023.82 1023.80 1023.86 1024.05 1024.39 1024.78 1025.14 1025.85 1026.33 1026.74 1026.79 1026.78
1018.56 1018.10 1017.77 1017.54 1017.71 1017.93 1018.25 1019.11 1020.22 1020.92 1021.37 1020.72 1019.87 1020.02 1017.35 1015.77 1015.03 1014.92 1015.42 1016.05 1016.90 1017.82 1018.92 1019.90 1020.83 1021.87 1022.77 1023.39 1023.82 1024.00 1024.07 1024.11 1024.09 1024.23 1024.31 1024.47 1024.61 1025.25 1025.22 1025.57 1026.30 1026.68 1027.04 1027.21
1019.31 1018.69 1017.86 1017.54 1017.64 1018.17 1018.59 1019.48 1020.14 1020.92 1021.47 1020.83 1019.84 1018.57 1015.90 1014.60 1014.58 1014.71 1015.00 1015.61 1016.74 1017.76 1018.58 1019.41 1020.28 1021.29 1022.19 1023.02 1023.64 1024.00 1024.18 1024.32 1024.26 1024.43 1024.79 1025.01 1025.08 1025.55 1025.74 1025.78 1026.20 1026.67 1027.12 1027.18
1019.17 1018.63 1017.64 1017.38 1017.48 1018.00 1018.81 1019.07 1019.52 1020.61 1021.45 1021.17 1019.39 1017.36 1015.33 1014.77 1014.78 1015.11 1015.47 1016.09 1017.00 1017.81 1018.57 1019.51 1020.44 1021.13 1021.99 1022.76 1023.33 1023.77 1024.19 1024.42 1024.58 1024.58 1025.13 1025.28 1025.37 1025.79 1026.11 1026.37 1026.33 1026.61 1027.25 1027.25
1019.22 1018.99 1018.42 1018.09 1018.03 1018.05 1018.05 1018.70 1019.68 1020.53 1021.44 1020.64 1018.56 1017.30 1015.60 1014.66 1014.85 1015.15 1015.98 1016.71 1017.67 1018.45 1019.15 1019.98 1020.65 1021.21 1021.86 1022.40 1022.92 1023.45 1023.97 1024.42 1024.74 1024.64 1024.97 1025.35 1025.67 1025.78 1026.18 1026.39 1026.82 1026.65 1027.31 1027.56
1018.81 1019.16 1019.19 1018.72 1018.57 1018.41 1018.55 1018.56 1018.81 1019.52 1020.07 1019.52 1018.41 1016.19 1014.48 1014.20 1014.55 1015.03 1016.18 1016.97 1017.70 1018.50 1019.23 1020.04 1020.79 1021.34 1021.74 1022.22 1022.71 1023.25 1023.97 1024.59 1024.95 1025.00 1025.27 1025.67 1025.99 1026.19 1026.10 1026.42 1026.90 1027.03 1027.21 1027.69
1018.45 1019.10 1019.43 1019.01 1018.38 1017.99 1017.99 1017.74 1018.13 1018.70 1018.89 1018.82 1018.23 1014.95 1013.92 1014.12 1014.36 1014.53 1015.57 1016.72 1017.36 1018.20 1019.21 1020.04 1020.72 1021.34 1021.86 1022.31 1022.84 1023.30 1023.74 1024.17 1024.58 1025.08 1025.31 1025.61 1025.81 1026.06 1026.29 1026.45 1026.76 1026.81 1027.20 1027.44
1018.35 1019.30 1020.19 1020.04 1019.37 1018.53 1018.05 1017.62 1017.47 1017.69 1017.87 1017.84 1017.76 1014.68 1013.76 1013.92 1014.27 1014.80 1015.73 1016.67 1017.28 1018.09 1019.04 1019.89 1020.61 1021.08 1021.51 1022.01 1022.53 1022.99 1023.42 1023.84 1024.19 1024.64 1025.26 1025.72 1025.98 1025.98 1026.17 1026.25 1026.61 1026.84 1027.12 1027.46
1018.70 1019.64 1019.99 1019.53 1018.76 1018.17 1017.96 1017.29 1017.03 1017.20 1017.30 1016.30 1015.94 1013.62 1013.48 1013.80 1014.16 1014.93 1015.57 1016.11 1016.86 1017.68 1018.43 1019.22 1020.03 1020.39 1020.86 1021.40 1022.01 1022.58 1023.07 1023.33 1023.80 1024.36 1024.90 1025.37 1025.76 1026.03 1026.33 1026.47 1026.65 1026.93 1027.07 1027.49
1019.95 1020.46 1020.25 1019.45 1018.90 1018.43 1018.14 1017.90 1017.50 1017.25 1016.46 1016.13 1014.03 1013.70 1011.70 1012.93 1013.55 1014.10 1014.31 1015.11 1016.20 1016.85 1017.67 1018.11 1018.67 1019.34 1020.06 1020.73 1021.38 1022.00 1022.53 1022.96 1023.24 1023.76 1024.31 1024.83 1025.39 1025.95 1026.15 1026.47 1026.67 1026.94 1027.26 1027.76
1021.32 1020.91 1020.92 1020.09 1019.05 1018.92 1018.61 1017.98 1017.69 1016.96 1015.96 1015.20 1013.95 1012.66 1010.08 1012.03 1012.32 1012.85 1013.26 1014.16 1015.15 1015.75 1016.29 1016.96 1017.75 1018.48 1018.80 1019.25 1019.89 1020.76 1021.55 1022.27 1022.95 1023.50 1023.81 1024.22 1024.89 1025.66 1026.17 1026.55 1026.75 1027.04 1027.59 1027.96
1022.62 1021.98 1021.64 1019.99 1019.51 1019.26 1018.53 1016.79 1015.67 1015.23 1014.71 1014.09 1013.17 1010.75 1010.67 1011.10 1011.87 1011.88 1012.24 1013.10 1013.58 1013.67 1014.21 1015.06 1015.51 1016.04 1016.94 1017.57 1018.41 1019.16 1020.18 1021.38 1022.25 1022.80 1023.35 1023.83 1024.34 1025.06 1025.69 1026.20 1026.62 1027.19 1027.66 1027.97
1022.90 1023.08 1023.17 1021.39 1020.73 1018.05 1015.04 1014.24 1013.97 1013.47 1012.31 1011.95 1011.88 1011.30 1010.44 1010.33 1011.11 1010.75 1011.11 1011.40 1011.49 1011.89 1012.71 1013.37 1013.83 1014.40 1015.13 1016.22 1017.28 1018.22 1019.17 1020.10 1021.17 1021.97 1022.59 1023.26 1024.01 1024.67 1025.12 1025.62 1026.13 1026.89 1027.46 1027.89
1022.40 1022.83 1023.12 1022.16 1020.68 1017.87 1015.30 1014.17 1013.63 1013.39 1011.64 1011.52 1011.77 1010.48 1009.41 1009.85 1010.14 1009.69 1009.67 1009.55 1009.57 1009.80 1010.00 1010.44 1010.95 1011.77 1013.69 1014.87 1016.02 1017.06 1018.17 1019.01 1019.98 1020.77 1021.48 1022.18 1022.93 1023.70 1024.46 1025.05 1025.69 1026.43 1027.10 1027.68
1022.83 1023.08 1023.18 1021.77 1021.12 1018.21 1013.61 1012.94 1012.87 1013.07 1012.10 1011.50 1011.13 1010.59 1010.12 1010.51 1010.39 1008.91 1007.65 1008.69 1008.40 1008.22 1008.82 1009.31 1009.90 1011.08 1012.49 1013.69 1014.84 1016.03 1016.83 1017.73 1018.24 1019.25 1020.31 1021.40 1022.19 1022.88 1023.65 1024.43 1025.30 1026.09 1026.77 1027.23
1023.92 1023.36 1022.27 1021.62 1020.71 1016.67 1012.26 1013.09 1013.67 1013.98 1012.51 1011.72 1011.81 1011.68 1011.55 1011.43 1011.22 1010.03 1009.35 1009.03 1008.56 1007.87 1007.76 1008.14 1009.22 1009.84 1010.62 1012.49 1013.89 1015.01 1015.90 1016.00 1016.93 1018.02 1019.34 1020.56 1021.40 1022.16 1022.94 1023.88 1024.96 1025.74 1026.50 1027.09
1022.74 1022.71 1021.79 1020.94 1019.62 1015.79 1012.75 1012.51 1013.32 1012.62 1012.11 1012.02 1011.94 1012.11 1011.70 1011.42 1010.73 1010.51 1010.07 1009.96 1009.11 1008.50 1008.25 1008.24 1009.00 1009.51 1010.14 1011.27 1012.62 1013.74 1014.28 1015.21 1016.37 1017.69 1018.49 1019.59 1020.55 1021.51 1022.44 1023.38 1024.50 1025.37 1026.05 1026.76
1021.08 1019.40 1019.27 1018.34 1015.45 1013.55 1012.76 1012.47 1012.51 1012.75 1012.41 1011.41 1011.42 1011.85 1011.58 1011.14 1011.03 1011.03 1010.53 1009.99 1009.28 1008.79 1008.65 1009.07 1008.90 1009.18 1009.82 1010.55 1011.23 1012.08 1012.98 1014.52 1015.65 1016.97 1018.01 1018.99 1020.06 1021.02 1021.87 1022.84 1023.82 1024.79 1025.55 1026.21
1019.13 1018.28 1017.69 1017.24 1013.39 1012.95 1011.83 1011.90 1011.95 1011.74 1011.30 1010.59 1010.45 1010.67 1010.83 1010.68 1010.51 1010.43 1010.21 1009.31 1009.06 1008.80 1008.74 1008.87 1009.29 1009.66 1009.94 1010.29 1010.57 1010.89 1012.27 1013.53 1015.18 1016.30 1017.58 1018.66 1019.46 1020.46 1021.44 1022.27 1023.10 1023.98 1024.76 1025.46
1017.99 1017.57 1017.07 1014.97 1012.23 1013.08 1010.87 1011.37 1011.26 1010.94 1010.48 1010.12 1009.94 1009.82 1010.17 1009.95 1009.67 1009.44 1009.37 1008.94 1009.00 1008.50 1008.16 1008.34 1008.71 1008.66 1009.40 1010.14 1010.67 1011.41 1012.08 1013.21 1014.63 1015.88 1017.00 1018.03 1018.98 1019.85 1020.90 1021.59 1022.15 1022.81 1023.56 1023.85
1016.52 1015.78 1015.65 1013.13 1010.84 1012.48 1010.01 1010.46 1010.49 1010.49 1009.99 1009.68 1009.77 1009.55 1009.50 1009.70 1009.31 1008.85 1008.36 1008.34 1007.95 1008.00 1007.17 1007.68 1008.12 1008.44 1008.75 1009.65 1010.46 1011.45 1012.23 1013.19 1014.25 1015.69 1016.65 1017.38 1018.42 1019.46 1020.44 1021.34 1022.35 1022.86 1023.43 1023.64
Wind_Speed
2 5 4 9 5 4 7 4 4 4 2 6 7 8 8 10 8 9 8 10 10 9 7 7 7 6 5 3 4 4 4 4 3 3 5 3 4 3 4 4 6 6 6 6
5 2 5 4 6 5 5 5 4 1 2 1 6 11 10 8 11 12 13 14 13 10 9 8 7 6 6 5 3 3 3 4 3 3 4 4 4 3 4 3 4 5 5 6
5 3 4 6 4 3 2 2 4 2 3 2 4 8 9 9 13 10 11 15 15 17 14 11 10 8 7 6 5 4 3 2 3 6 6 5 7 4 2 3 3 4 6 6
4 6 7 7 3 3 2 5 1 5 2 3 4 8 6 5 12 14 17 15 15 14 13 12 11 8 8 6 4 4 3 3 2 3 5 9 5 5 3 3 3 4 6 6
6 3 5 4 4 4 2 3 3 2 1 3 3 1 9 5 6 12 15 14 12 16 16 15 13 10 7 6 5 4 4 2 2 2 4 4 6 6 5 4 6 5 5 6
4 2 1 4 4 4 5 4 1 3 2 2 8 7 5 5 7 5 7 12 12 14 13 12 10 10 7 6 6 5 5 2 3 4 3 7 9 7 6 5 5 4 4 3
3 2 1 2 2 2 4 5 3 3 1 6 1 4 9 8 8 7 8 12 12 15 14 14 14 12 9 8 6 5 6 4 4 5 5 5 6 5 7 7 6 6 3 3
5 6 8 7 7 7 7 8 6 5 3 5 0 7 8 6 2 2 2 7 10 14 14 16 16 13 11 9 7 6 6 5 6 6 5 5 6 4 4 7 7 5 4 4
2 6 1 6 5 9 5 8 3 2 1 1 5 8 9 2 4 2 4 6 12 13 14 14 13 12 11 9 8 8 7 6 6 6 5 5 5 6 6 7 7 6 6 6
3 3 4 1 2 2 5 5 2 1 2 6 6 6 9 4 6 4 5 6 5 6 8 10 10 9 9 9 7 8 7 7 6 7 6 5 5 6 6 7 7 8 7 6
6 4 4 2 5 7 2 3 4 6 6 4 4 7 6 6 6 6 8 8 9 10 10 10 8 8 9 7 7 8 7 7 6 6 6 5 5 5 7 7 6 7 8 7
5 4 5 9 6 9 7 9 8 6 4 4 3 15 4 7 6 7 9 7 8 10 10 9 10 10 9 8 7 7 8 8 7 6 7 8 9 9 7 7 7 8 8 7
6 1 3 9 6 3 6 9 6 6 2 9 6 11 1 3 3 3 7 8 8 10 9 9 9 11 11 10 9 10 9 8 8 8 7 6 6 7 8 9 8 7 8 8
2 3 9 11 6 2 6 10 11 15 9 20 16 29 14 6 6 6 7 9 9 11 13 13 12 12 11 11 11 10 9 10 10 9 9 9 8 8 8 7 7 7 8 9
4 8 6 15 11 2 5 6 9 15 17 16 24 24 25 17 15 9 14 9 11 13 15 16 16 14 13 13 12 11 11 11 12 12 11 11 9 8 8 7 7 7 7 7
2 5 5 15 17 9 11 13 9 15 17 18 23 26 32 11 8 11 13 11 13 14 16 17 15 15 17 17 16 14 13 13 12 12 12 10 11 10 9 8 7 8 7 8
4 4 2 16 15 9 12 24 27 23 17 18 19 29 21 17 10 14 17 12 17 20 20 20 22 21 18 19 18 19 16 14 14 13 11 12 12 12 10 9 9 8 8 7
6 4 2 7 4 11 11 9 22 27 29 25 25 25 27 21 8 13 7 12 17 16 16 18 18 18 20 18 18 16 16 16 15 14 14 13 13 12 11 11 11 9 7 8
16 8 3 6 4 12 20 9 7 12 24 18 18 26 29 24 19 17 19 17 20 18 20 21 21 20 16 19 18 18 17 17 17 17 16 16 15 14 13 13 12 9 9 8
13 11 5 3 8 13 15 10 11 2 13 9 15 20 22 14 13 17 22 10 19 17 14 17 16 15 16 18 19 19 19 19 20 19 18 16 15 15 15 13 12 10 9 9
5 6 15 13 10 13 14 10 1 13 16 7 7 6 7 5 6 12 14 10 10 11 15 10 14 19 20 18 19 20 19 22 19 17 16 15 15 15 14 12 10 10 9 8
10 7 6 4 8 19 3 2 14 5 6 4 2 8 15 12 8 13 16 9 12 13 5 11 13 15 17 19 20 20 21 18 17 16 17 17 15 12 11 13 10 10 10 9
4 11 7 12 11 6 5 6 4 4 9 18 14 11 15 12 7 8 10 9 11 12 6 6 12 14 15 19 21 22 20 18 18 17 17 16 14 13 12 14 12 10 10 8
5 2 6 2 20 26 26 17 9 9 16 15 13 13 12 15 9 9 10 8 7 7 8 7 8 11 14 17 19 18 17 18 18 18 16 14 15 13 12 10 10 9 9 9
6 4 4 16 25 18 27 22 19 20 20 19 18 10 13 11 13 10 11 9 9 9 7 8 12 13 14 14 15 14 16 18 17 16 15 15 12 13 12 10 10 10 10 11
9 13 12 18 28 10 26 17 7 9 9 8 8 10 10 11 14 14 15 10 8 10 7 8 8 9 11 14 14 10 15 18 18 15 13 12 11 10 10 9 7 14 11 17
Wind_Direction
286 83 183 218 197 117 147 145 172 201 231 195 244 266 228 200 203 213 196 174 183 183 168 167 175 174 161 175 177 182 154 160 154 161 130 116 104 94 69 51 37 38 25 17
34 214 222 154 134 100 123 159 202 107 92 139 285 274 266 197 214 205 193 191 187 177 171 177 168 172 173 166 156 128 132 134 180 121 124 131 123 95 102 75 51 45 33 22
165 254 156 107 79 102 289 183 203 190 157 280 348 280 243 227 208 208 213 199 192 177 175 176 171 181 164 151 157 137 124 103 65 121 121 113 106 108 112 59 43 33 37 30
246 265 131 129 169 164 293 223 49 115 88 264 126 291 308 245 222 204 207 198 192 179 177 172 174 172 157 159 150 125 106 82 45 170 151 155 153 144 133 127 98 56 38 35
253 142 126 123 191 180 202 100 138 201 267 303 192 6 269 255 255 222 217 207 192 181 172 173 173 162 151 150 159 150 121 81 16 358 182 144 128 118 125 124 117 83 50 36
203 230 72 184 205 202 165 103 11 16 89 336 221 170 268 225 209 249 205 207 180 172 169 162 147 139 147 157 162 159 149 140 64 67 87 141 135 141 138 135 115 93 72 50
342 212 181 88 145 99 138 88 353 340 243 240 313 182 247 265 248 222 218 199 180 170 163 156 154 156 154 168 173 164 156 143 107 85 75 100 129 142 138 134 126 119 87 56
179 300 159 193 186 182 184 162 162 219 226 267 242 240 254 241 156 34 178 197 167 167 170 168 165 159 160 167 172 167 161 149 129 119 111 107 104 115 111 119 123 113 112 105
231 254 187 160 172 143 228 219 199 354 359 353 241 290 297 141 242 242 231 157 179 174 170 165 161 160 159 163 173 165 161 155 153 139 126 114 113 112 120 111 115 121 120 112
253 298 359 355 73 291 158 178 154 356 259 255 266 248 239 278 275 229 238 197 164 144 145 155 164 161 159 163 162 158 161 163 169 144 137 131 126 123 124 122 128 115 116 106
173 145 278 117 194 191 153 211 206 164 178 220 293 262 218 225 211 194 220 199 172 172 168 166 163 164 161 155 157 161 160 158 155 134 125 122 127 127 121 122 124 129 120 125
204 169 217 231 232 209 211 215 194 186 231 233 234 262 231 212 226 163 199 206 178 177 171 168 166 167 167 171 167 170 164 162 158 155 150 156 152 149 137 139 145 136 132 122
174 255 30 330 331 258 221 223 218 250 211 221 199 262 345 60 155 167 187 206 186 174 167 169 171 182 180 178 178 179 175 169 159 153 155 159 160 150 155 149 147 137 134 123
76 171 188 222 209 101 206 210 216 219 233 241 235 261 238 265 232 236 226 210 194 189 184 186 191 194 189 189 190 186 179 170 167 163 166 165 165 162 161 153 145 143 131 126
128 224 228 253 269 270 228 269 268 239 239 236 247 248 258 245 263 220 226 202 194 197 196 198 199 196 192 191 190 186 184 180 175 173 172 174 163 161 154 153 148 136 130 132
154 251 193 264 265 237 258 273 248 253 264 260 257 261 259 255 237 245 240 198 203 207 209 208 202 199 199 194 190 184 185 183 179 182 179 165 159 159 162 154 145 136 141 142
313 326 281 251 255 257 253 237 242 246 240 234 248 252 272 263 240 252 260 186 208 210 207 202 204 204 200 197 187 189 181 175 183 180 173 167 164 165 164 156 148 153 157 145
189 167 245 274 2 238 245 213 220 230 239 235 245 260 266 262 251 247 221 210 226 219 211 209 209 206 202 191 190 182 178 177 180 179 175 170 170 171 164 161 162 158 159 158
207 203 236 252 198 304 302 276 189 207 249 248 239 249 256 266 269 277 251 237 245 225 214 212 208 205 188 187 184 180 177 177 179 183 180 178 175 171 167 170 167 164 163 165
212 223 218 170 259 262 259 241 237 314 260 262 233 250 263 270 268 263 272 245 256 245 214 217 202 186 182 185 180 179 182 183 186 183 181 178 175 172 173 171 170 169 168 165
152 212 223 234 241 261 264 247 345 272 261 335 28 343 5 323 285 304 337 319 296 258 221 200 174 185 189 175 175 187 187 194 188 176 173 173 174 174 172 164 165 162 165 161
171 180 197 207 229 265 288 222 202 228 312 278 108 319 308 286 293 309 312 308 312 301 211 182 180 191 181 176 177 188 196 185 178 175 169 171 171 169 165 161 161 163 162 165
252 196 190 187 217 234 220 170 205 182 266 283 280 258 273 276 235 241 276 296 309 302 253 222 198 188 183 181 185 188 190 179 171 170 173 169 162 166 164 163 164 163 167 175
268 155 215 181 253 258 269 287 258 266 261 271 266 247 238 261 268 253 266 273 269 265 238 202 193 198 195 190 194 194 175 168 169 170 168 164 164 160 163 165 167 171 177 181
192 137 211 257 267 275 271 267 272 269 263 267 270 246 224 235 258 251 260 259 264 245 221 195 206 201 200 189 193 184 170 164 169 168 167 167 168 166 163 172 175 182 192 187
201 224 223 253 258 239 270 279 250 252 260 266 239 252 241 236 258 279 275 245 244 247 198 194 207 200 182 183 182 165 163 167 167 169 170 169 162 162 165 163 167 201 192 197